FW7647 Weather Reports


Display with metric or nautical units.
time (UTC)temp
F
wind
direction
speed
MPH
gust
MPH
rain 1hr
in
rain 24hr
in
rain mn
in
humidity
%
barometer
mb
20260906111407 79 288 0.0 2.0 0.00 0.00 0.00 95 1010.5
20260906110902 79 288 0.0 3.0 0.00 0.00 0.00 95 1010.5
20260906110358 79 297 3.0 3.0 0.00 0.00 0.00 95 1010.1
20260906105857 79 224 0.0 3.0 0.00 0.00 0.00 95 1010.5
20260906105353 79 259 1.0 5.0 0.00 0.00 0.00 95 1010.1
20260906104848 79 257 1.0 5.0 0.00 0.00 0.00 95 1010.1
20260906104347 79 325 1.0 3.0 0.00 0.00 0.00 95 1010.5
20260906103845 79 274 0.0 2.0 0.00 0.00 0.00 95 1010.1
20260906103344 79 279 0.0 2.0 0.00 0.00 0.00 95 1010.1
20260906102840 79 260 0.0 2.0 0.00 0.00 0.00 95 1010.1
20260906102339 79 272 0.0 3.0 0.00 0.00 0.00 95 1010.1
20260906101834 79 246 1.0 7.0 0.00 0.00 0.00 95 1010.1
20260906101329 79 286 0.0 7.0 0.00 0.00 0.00 95 1010.5
20260906100825 79 243 2.0 2.0 0.00 0.00 0.00 95 1010.1
20260906100324 79 251 0.0 2.0 0.00 0.00 0.00 95 1010.1
20260906095819 79 228 0.0 2.0 0.00 0.00 0.00 95 1010.1
20260906095315 79 245 0.0 3.0 0.00 0.00 0.00 95 1010.1
20260906094814 79 261 1.0 3.0 0.00 0.00 0.00 95 1010.1
20260906094309 79 231 0.0 2.0 0.00 0.00 0.00 95 1010.1
20260906093805 79 267 1.0 2.0 0.00 0.00 0.00 95 1009.8
20260906093301 79 230 0.0 1.0 0.00 0.00 0.00 95 1009.8
20260906092755 79 230 0.0 1.0 0.00 0.00 0.00 95 1010.1
20260906092250 80 220 1.0 3.0 0.00 0.00 0.00 95 1009.8
20260906091746 80 307 0.0 3.0 0.00 0.00 0.00 95 1009.8
20260906091242 80 306 0.0 3.0 0.00 0.00 0.00 95 1009.8
20260906090738 80 344 1.0 2.0 0.00 0.00 0.00 95 1009.8
20260906090237 80 260 0.0 2.0 0.00 0.00 0.00 95 1010.1
20260906085736 80 232 1.0 2.0 0.00 0.00 0.00 95 1009.8
20260906085236 80 284 1.0 2.0 0.00 0.00 0.00 95 1010.1
20260906084730 80 288 0.0 2.0 0.00 0.00 0.00 95 1010.1
20260906084225 80 290 0.0 2.0 0.00 0.00 0.00 95 1009.8
20260906083720 80 218 0.0 0.0 0.00 0.00 0.00 95 1010.1
20260906083215 80 218 0.0 1.0 0.00 0.00 0.00 95 1010.1
20260906082710 80 218 0.0 1.0 0.00 0.00 0.00 95 1010.1
20260906082205 80 218 1.0 1.0 0.00 0.00 0.00 95 1009.8
20260906081702 80 217 0.0 1.0 0.00 0.00 0.00 95 1010.1
20260906081156 80 217 0.0 0.0 0.00 0.00 0.00 95 1010.1
20260906080653 80 217 0.0 0.0 0.00 0.00 0.00 95 1010.5
20260906080149 79 217 0.0 2.0 0.00 0.00 0.00 95 1010.1
20260906075648 80 217 0.0 2.0 0.00 0.00 0.00 95 1010.1
20260906075143 80 217 1.0 1.0 0.00 0.00 0.00 95 1009.8
20260906074638 80 218 0.0 1.0 0.00 0.00 0.00 95 1009.8
20260906074137 80 218 0.0 2.0 0.00 0.00 0.00 95 1010.1
20260906073632 80 209 0.0 1.0 0.00 0.00 0.00 94 1010.1
20260906073128 80 208 0.0 1.0 0.00 0.00 0.00 94 1010.1
20260906072622 80 208 0.0 1.0 0.00 0.00 0.00 94 1010.1
20260906072118 80 208 0.0 1.0 0.00 0.00 0.00 94 1009.8
20260906071615 80 167 0.0 0.0 0.00 0.00 0.00 94 1010.1
20260906071109 80 167 0.0 0.0 0.00 0.00 0.00 94 1010.1
20260906070606 80 167 0.0 1.0 0.00 0.00 0.00 94 1010.1
20260906070101 80 167 0.0 3.0 0.00 0.00 0.00 94 1010.1
20260906065600 80 167 0.0 3.0 0.00 0.00 0.00 94 1009.8
20260906065056 80 241 0.0 1.0 0.00 0.00 0.00 94 1010.1
20260906064552 80 241 0.0 1.0 0.00 0.00 0.00 94 1010.1
20260906064046 80 241 0.0 1.0 0.00 0.00 0.00 94 1009.8
20260906063541 80 237 0.0 1.0 0.00 0.00 0.00 94 1010.1
20260906063038 80 237 1.0 1.0 0.00 0.00 0.00 94 1010.1
20260906062533 80 237 0.0 1.0 0.00 0.00 0.00 94 1010.1
20260906062027 80 237 0.0 1.0 0.00 0.00 0.00 94 1010.5
20260906061523 80 237 0.0 1.0 0.00 0.00 0.00 94 1010.1
20260906061022 80 237 0.0 1.0 0.00 0.00 0.00 94 1010.1
20260906060519 80 237 1.0 1.0 0.00 0.00 0.00 94 1010.5
20260906060016 80 237 1.0 1.0 0.00 0.00 0.00 94 1010.5
20260906055511 80 237 0.0 1.0 0.00 0.00 0.00 94 1010.5
20260906055007 80 237 0.0 1.0 0.00 0.00 0.00 93 1010.5
20260906054501 80 237 0.0 1.0 0.00 0.00 0.00 93 1010.5
20260906053956 80 237 0.0 1.0 0.00 0.00 0.00 93 1010.5
20260906053453 80 237 0.0 0.0 0.00 0.00 0.00 93 1010.8
20260906052948 80 237 0.0 0.0 0.00 0.00 0.00 93 1010.8
20260906052444 80 237 0.0 0.0 0.00 0.00 0.00 93 1010.8
20260906051941 81 237 0.0 0.0 0.00 0.00 0.00 93 1010.8
20260906051436 80 237 0.0 0.0 0.00 0.00 0.00 93 1010.8
20260906050932 81 237 0.0 1.0 0.00 0.00 0.00 93 1011.1
20260906050431 81 237 0.0 1.0 0.00 0.00 0.00 93 1011.1
20260906045930 81 237 0.0 1.0 0.00 0.00 0.00 93 1010.8
20260906045429 81 237 0.0 1.0 0.00 0.00 0.00 93 1011.1
20260906044926 81 237 1.0 1.0 0.00 0.00 0.00 93 1010.8
20260906044420 81 237 0.0 1.0 0.00 0.00 0.00 93 1011.1
20260906043916 81 237 0.0 1.0 0.00 0.00 0.00 93 1010.8
20260906043412 81 237 0.0 1.0 0.00 0.00 0.00 93 1010.8
20260906042907 81 237 0.0 2.0 0.00 0.00 0.00 93 1010.8
20260906042406 81 237 0.0 2.0 0.00 0.00 0.00 92 1010.8
20260906041901 81 237 0.0 1.0 0.00 0.00 0.00 92 1010.8
20260906041356 82 238 0.0 1.0 0.00 0.00 0.00 92 1011.1
20260906040851 82 231 0.0 2.0 0.00 0.00 0.00 92 1011.1
20260906040346 82 231 0.0 2.0 0.00 0.00 0.00 92 1011.1
20260906035842 82 221 0.0 3.0 0.00 0.00 0.00 92 1011.1
20260906035337 82 217 0.0 3.0 0.00 0.00 0.00 92 1011.1
20260906034832 82 242 2.0 3.0 0.00 0.00 0.00 92 1011.1
20260906034327 82 198 0.0 6.0 0.00 0.00 0.00 92 1011.1
20260906033823 82 168 1.0 6.0 0.00 0.00 0.00 92 1011.1
20260906033322 82 226 1.0 6.0 0.00 0.00 0.00 92 1011.1
20260906032818 82 210 1.0 6.0 0.00 0.00 0.00 92 1011.1
20260906032314 82 240 0.0 6.0 0.00 0.00 0.00 92 1011.1
20260906031809 82 189 2.0 6.0 0.00 0.00 0.00 92 1011.5
20260906031305 82 243 0.0 8.0 0.00 0.00 0.00 92 1011.5
20260906030804 82 275 1.0 8.0 0.00 0.00 0.00 92 1011.5
20260906030259 82 187 2.0 7.0 0.00 0.00 0.00 91 1011.1
20260906025759 82 204 1.0 7.0 0.00 0.00 0.00 91 1011.5
20260906025253 82 186 1.0 6.0 0.00 0.00 0.00 91 1011.1
20260906024752 83 197 2.0 9.0 0.00 0.00 0.00 91 1011.1
20260906024251 82 158 1.0 10.0 0.00 0.00 0.00 91 1011.1
20260906023747 82 232 3.0 11.0 0.00 0.00 0.00 91 1011.1
20260906023242 82 236 2.0 11.0 0.00 0.00 0.00 91 1011.1
20260906022738 82 233 5.0 9.0 0.00 0.00 0.00 91 1010.8
20260906022233 82 202 2.0 7.0 0.00 0.00 0.00 90 1010.8
20260906021729 82 190 3.0 7.0 0.00 0.00 0.00 90 1011.1
20260906021228 82 227 1.0 6.0 0.00 0.00 0.00 90 1011.1
20260906020723 83 196 1.0 6.0 0.00 0.00 0.00 90 1011.1
20260906020218 83 171 4.0 6.0 0.00 0.00 0.00 90 1011.1
20260906015712 83 241 4.0 6.0 0.00 0.00 0.00 90 1010.8
20260906015210 83 195 3.0 6.0 0.00 0.00 0.00 89 1011.1
20260906014705 83 208 3.0 6.0 0.00 0.00 0.00 89 1011.1
20260906014201 83 216 2.0 6.0 0.00 0.00 0.00 89 1010.8
20260906013657 83 194 1.0 5.0 0.00 0.00 0.00 89 1010.8
20260906013152 83 198 3.0 7.0 0.00 0.00 0.00 89 1011.1
20260906012651 83 202 1.0 7.0 0.00 0.00 0.00 88 1011.1
20260906012146 83 185 1.0 7.0 0.00 0.00 0.00 88 1010.8
20260906011642 83 189 3.0 6.0 0.00 0.00 0.00 88 1010.8
20260906011136 83 227 3.0 6.0 0.00 0.00 0.00 88 1010.8
20260906010631 83 183 3.0 6.0 0.00 0.00 0.00 87 1011.1
20260906010128 84 233 2.0 7.0 0.00 0.00 0.00 87 1010.8
20260906005621 84 188 2.0 8.0 0.00 0.00 0.00 87 1010.8
20260906005121 84 190 2.0 8.0 0.00 0.00 0.00 87 1010.8
20260906004620 84 192 1.0 6.0 0.00 0.00 0.00 86 1010.8
20260906004115 84 184 4.0 6.0 0.00 0.00 0.00 86 1011.1
20260906003610 84 201 1.0 5.0 0.00 0.00 0.00 86 1011.1
20260906003106 84 235 3.0 6.0 0.00 0.00 0.00 85 1011.1
20260906002601 84 249 0.0 7.0 0.00 0.00 0.00 85 1010.8
20260906002055 85 204 3.0 7.0 0.00 0.00 0.00 84 1010.8
20260906001545 85 192 2.0 6.0 0.00 0.00 0.00 84 1010.8
20260906001045 85 198 1.0 7.0 0.00 0.00 0.00 83 1010.8
20260906000541 85 205 3.0 8.0 0.00 0.00 0.00 82 1010.8
20260906000036 86 199 1.0 9.0 0.00 0.00 0.00 81 1010.8
20260905235530 86 183 3.0 10.0 0.00 0.00 0.00 80 1010.8
20260905235025 86 214 5.0 13.0 0.00 0.00 0.00 79 1011.1
20260905234520 86 216 8.0 13.0 0.00 0.00 0.00 78 1010.5
20260905234015 86 154 0.0 2.0 0.00 0.00 0.00 77 1010.8
20260905233510 86 154 0.0 2.0 0.00 0.00 0.00 77 1010.5
20260905233009 86 196 0.0 2.0 0.00 0.00 0.00 76 1010.5
20260905232505 86 195 0.0 2.0 0.00 0.00 0.00 76 1010.5
20260905232001 87 198 0.0 2.0 0.00 0.00 0.00 75 1010.5
20260905231456 87 194 0.0 3.0 0.00 0.00 0.00 75 1010.5
20260905230952 87 202 1.0 3.0 0.00 0.00 0.00 75 1010.5
20260905230450 87 198 2.0 6.0 0.00 0.00 0.00 75 1010.5
20260905225949 87 227 0.0 6.0 0.00 0.00 0.00 75 1010.5
20260905225444 88 178 0.0 3.0 0.00 0.00 0.00 75 1010.1
20260905224939 88 205 1.0 5.0 0.00 0.00 0.00 74 1010.1
20260905224435 88 207 0.0 8.0 0.00 0.00 0.00 74 1010.1
20260905223933 88 229 0.0 8.0 0.00 0.00 0.00 73 1010.5
20260905223432 88 201 4.0 11.0 0.00 0.00 0.00 73 1010.1
20260905222927 89 184 6.0 9.0 0.00 0.00 0.00 71 1010.1
20260905222426 90 228 1.0 7.0 0.00 0.00 0.00 71 1010.5
20260905221922 90 203 5.0 7.0 0.00 0.00 0.00 70 1010.1
20260905221419 90 192 5.0 6.0 0.00 0.00 0.00 69 1010.5
20260905220915 90 215 0.0 5.0 0.00 0.00 0.00 69 1010.5
20260905220410 91 196 0.0 5.0 0.00 0.00 0.00 66 1010.5
20260905215909 92 266 1.0 5.0 0.00 0.00 0.00 67 1010.8
20260905215405 92 169 2.0 7.0 0.00 0.00 0.00 67 1010.5
20260905214901 91 201 1.0 7.0 0.00 0.00 0.00 68 1011.1
20260905214356 90 178 2.0 7.0 0.00 0.00 0.00 69 1010.5
20260905213851 89 231 0.0 3.0 0.00 0.00 0.00 69 1010.8
20260905213348 90 231 0.0 3.0 0.00 0.00 0.00 67 1010.8
20260905212848 91 168 1.0 3.0 0.00 0.00 0.00 64 1010.8
20260905212347 93 212 1.0 3.0 0.00 0.00 0.00 63 1010.8
20260905211842 92 84 1.0 5.0 0.00 0.00 0.00 63 1010.5
20260905211337 92 190 0.0 5.0 0.00 0.00 0.00 63 1010.5
20260905210833 92 281 3.0 5.0 0.00 0.00 0.00 63 1010.5
20260905210328 92 125 1.0 8.0 0.00 0.00 0.00 62 1010.5
20260905205827 93 237 1.0 8.0 0.00 0.00 0.00 62 1010.5
20260905205321 93 209 0.0 5.0 0.00 0.00 0.00 62 1010.1
20260905204821 93 185 2.0 5.0 0.00 0.00 0.00 61 1010.1
20260905204317 93 265 3.0 7.0 0.00 0.00 0.00 61 1010.1
20260905203815 93 286 5.0 9.0 0.00 0.00 0.00 62 1010.1
20260905203312 92 336 3.0 7.0 0.00 0.00 0.00 62 1009.8
20260905202807 92 191 0.0 6.0 0.00 0.00 0.00 64 1009.8
20260905202306 91 269 2.0 6.0 0.00 0.00 0.00 64 1010.1
20260905201758 91 279 3.0 5.0 0.00 0.00 0.00 65 1009.8
20260905201253 91 34 2.0 7.0 0.00 0.00 0.00 65 1010.1
20260905200747 91 209 2.0 6.0 0.00 0.00 0.00 66 1010.1
20260905200243 91 174 3.0 6.0 0.00 0.00 0.00 65 1010.1
20260905195741 91 205 2.0 6.0 0.00 0.00 0.00 67 1010.1
20260905195236 90 27 2.0 5.0 0.00 0.00 0.00 66 1010.1
20260905194732 91 286 2.0 9.0 0.00 0.00 0.00 66 1010.5
20260905194231 91 225 4.0 9.0 0.00 0.00 0.00 67 1010.5
20260905193725 90 16 4.0 7.0 0.00 0.00 0.00 67 1010.5
20260905193220 90 279 4.0 7.0 0.00 0.00 0.00 67 1010.5
20260905192716 91 267 1.0 9.0 0.00 0.00 0.00 68 1010.5
20260905192213 90 283 1.0 9.0 0.00 0.00 0.00 68 1010.8
20260905191711 90 291 7.0 8.0 0.00 0.00 0.00 68 1010.8
20260905191209 90 189 2.0 8.0 0.00 0.00 0.00 68 1011.1
20260905190709 90 316 5.0 8.0 0.00 0.00 0.00 68 1011.1
20260905190208 90 88 2.0 8.0 0.00 0.00 0.00 69 1011.1
20260905185707 90 247 2.0 7.0 0.00 0.00 0.00 69 1011.1
20260905185207 90 250 4.0 7.0 0.00 0.00 0.00 68 1011.1
20260905184701 90 257 3.0 7.0 0.00 0.00 0.00 69 1011.5
20260905184200 90 170 4.0 7.0 0.00 0.00 0.00 69 1011.1
20260905183700 90 188 3.0 5.0 0.00 0.00 0.00 69 1011.5
20260905183155 90 94 1.0 7.0 0.00 0.00 0.00 70 1011.5
20260905182655 89 282 1.0 7.0 0.00 0.00 0.00 71 1011.5
20260905182154 89 274 2.0 6.0 0.00 0.00 0.00 70 1011.8
20260905181650 89 206 1.0 6.0 0.00 0.00 0.00 72 1011.8
20260905181149 88 224 2.0 6.0 0.00 0.00 0.00 72 1011.8
20260905180643 88 277 2.0 6.0 0.00 0.00 0.00 72 1011.8
20260905180139 88 203 4.0 6.0 0.00 0.00 0.00 72 1012.2
20260905175638 88 325 3.0 5.0 0.00 0.00 0.00 73 1012.2
20260905175133 88 134 2.0 7.0 0.00 0.00 0.00 73 1012.5
20260905174629 87 215 3.0 7.0 0.00 0.00 0.00 74 1012.5
20260905174124 88 269 2.0 7.0 0.00 0.00 0.00 73 1012.5
20260905173621 88 149 4.0 7.0 0.00 0.00 0.00 74 1012.5
20260905173116 89 175 0.0 7.0 0.00 0.00 0.00 74 1012.5
20260905172615 88 272 1.0 7.0 0.00 0.00 0.00 74 1012.8
20260905172110 88 271 4.0 8.0 0.00 0.00 0.00 76 1012.5
20260905171606 88 228 5.0 8.0 0.00 0.00 0.00 76 1012.8
20260905171102 87 143 2.0 9.0 0.00 0.00 0.00 76 1012.8
20260905170558 87 215 1.0 9.0 0.00 0.00 0.00 76 1012.8
20260905170054 87 304 1.0 7.0 0.00 0.00 0.00 77 1013.2
20260905165548 87 79 2.0 6.0 0.00 0.00 0.00 77 1013.2
20260905165043 86 105 3.0 7.0 0.00 0.00 0.00 79 1013.2
20260905164538 86 175 5.0 6.0 0.00 0.00 0.00 78 1013.2
20260905164032 86 228 1.0 6.0 0.00 0.00 0.00 77 1013.2
20260905163528 86 188 1.0 6.0 0.00 0.00 0.00 78 1013.2
20260905163025 86 132 2.0 6.0 0.00 0.00 0.00 78 1013.5
20260905162520 86 129 3.0 7.0 0.00 0.00 0.00 79 1013.5
20260905162015 85 236 3.0 7.0 0.00 0.00 0.00 79 1013.5
20260905161514 86 278 3.0 6.0 0.00 0.00 0.00 79 1013.5
20260905161012 85 166 2.0 8.0 0.00 0.00 0.00 79 1013.5
20260905160505 85 304 3.0 8.0 0.00 0.00 0.00 80 1013.8
20260905160000 84 341 4.0 8.0 0.00 0.00 0.00 81 1013.8
20260905155455 84 293 2.0 8.0 0.00 0.00 0.00 81 1013.8
20260905154953 84 266 3.0 8.0 0.00 0.00 0.00 81 1013.8
20260905154449 84 281 3.0 9.0 0.00 0.00 0.00 81 1013.8
20260905153944 84 265 3.0 9.0 0.00 0.00 0.00 82 1013.8
20260905153440 84 298 0.0 6.0 0.00 0.00 0.00 81 1013.8
20260905152940 84 226 0.0 8.0 0.00 0.00 0.00 83 1014.2
20260905152440 84 272 1.0 8.0 0.00 0.00 0.00 82 1014.2
20260905151940 84 260 3.0 7.0 0.00 0.00 0.00 82 1014.2
20260905151435 83 249 1.0 6.0 0.00 0.00 0.00 83 1013.8
20260905150930 83 250 3.0 8.0 0.00 0.00 0.00 83 1014.2
20260905150425 83 351 1.0 8.0 0.00 0.00 0.00 83 1014.2
20260905145921 83 324 6.0 9.0 0.00 0.00 0.00 83 1013.8
20260905145416 83 269 3.0 9.0 0.00 0.00 0.00 83 1014.2
20260905144915 82 351 3.0 6.0 0.00 0.00 0.00 84 1014.2
20260905144411 82 312 3.0 8.0 0.00 0.00 0.00 85 1014.2
20260905143909 82 192 1.0 8.0 0.00 0.00 0.00 86 1014.2
20260905143403 82 237 0.0 8.0 0.00 0.00 0.00 86 1014.2
20260905142903 82 340 2.0 8.0 0.00 0.00 0.00 87 1014.2
20260905142356 81 235 0.0 6.0 0.00 0.00 0.00 87 1014.2
20260905141852 81 327 1.0 6.0 0.00 0.00 0.00 87 1014.2
20260905141347 81 8 3.0 7.0 0.00 0.00 0.00 88 1014.2
20260905140844 81 287 5.0 7.0 0.00 0.00 0.00 88 1014.2
20260905140344 81 318 3.0 7.0 0.00 0.00 0.00 88 1014.2
20260905135842 81 215 4.0 7.0 0.00 0.00 0.00 89 1014.2
20260905135338 80 66 1.0 6.0 0.00 0.00 0.00 89 1014.2
20260905134833 80 262 1.0 6.0 0.00 0.00 0.00 89 1014.2
20260905134327 80 326 2.0 6.0 0.00 0.00 0.00 89 1014.2
20260905133827 80 185 0.0 7.0 0.00 0.00 0.00 90 1014.2
20260905133322 80 249 1.0 8.0 0.00 0.00 0.00 90 1014.2
20260905132821 80 262 2.0 8.0 0.00 0.00 0.00 90 1014.2
20260905132317 80 289 3.0 7.0 0.00 0.00 0.00 90 1014.2
20260905131817 80 299 2.0 8.0 0.00 0.00 0.00 90 1014.2
20260905131313 80 264 1.0 8.0 0.00 0.00 0.00 90 1014.2
20260905130808 80 293 5.0 8.0 0.00 0.00 0.00 90 1014.2
20260905130306 80 286 4.0 8.0 0.00 0.00 0.00 90 1014.2
20260905125802 80 259 3.0 7.0 0.00 0.00 0.00 90 1014.2
20260905125256 81 294 1.0 6.0 0.00 0.00 0.00 91 1013.8
20260905124753 80 302 2.0 6.0 0.00 0.00 0.00 91 1013.8
20260905124249 80 332 3.0 6.0 0.00 0.00 0.00 91 1013.8
20260905123743 80 233 1.0 6.0 0.00 0.00 0.00 92 1013.8
20260905123241 80 284 0.0 5.0 0.00 0.00 0.00 92 1013.8
20260905122741 80 256 0.0 6.0 0.00 0.00 0.00 92 1013.8
20260905122240 79 293 3.0 6.0 0.00 0.00 0.00 92 1013.8
20260905121736 80 259 0.0 3.0 0.00 0.00 0.00 93 1013.8
20260905121232 79 333 3.0 3.0 0.00 0.00 0.00 93 1013.8
20260905120730 79 293 0.0 3.0 0.00 0.00 0.00 93 1013.8
20260905120225 79 300 0.0 2.0 0.00 0.00 0.00 93 1013.8
20260905115720 79 299 0.0 2.0 0.00 0.00 0.00 93 1013.5
20260905115220 78 288 0.0 1.0 0.00 0.00 0.00 94 1013.8
20260905114714 78 288 0.0 1.0 0.00 0.00 0.00 94 1013.5
20260905114212 78 288 0.0 1.0 0.00 0.00 0.00 94 1013.8
20260905113707 77 288 0.0 2.0 0.00 0.00 0.00 94 1013.5
20260905113203 77 295 0.0 2.0 0.00 0.00 0.00 94 1013.5
20260905112703 77 269 0.0 1.0 0.00 0.00 0.00 94 1013.5
20260905112158 77 269 0.0 2.0 0.00 0.00 0.00 94 1013.5
20260905111658 77 263 1.0 3.0 0.00 0.00 0.00 94 1013.2